sat.trackr.live / text

‹ back to catalog

STARLINK-31996

NORAD 60100 · 2024-117K

PAYLOAD ACTIVE UNKNOWN

§ Identity

Operator
Country
US
Launch date
2024-06-23
Launch site
AFETR
Launch vehicle
Mass (kg)
RCS (m²)

Purposes: comms

External: N2YO · Heavens-Above · Gunter

§ Orbital elements

Epoch: 2026-09-21T13:07:16.620960Z

Period
93.86 min
Inclination
53.1582°
Eccentricity
0.0002971
Mean motion
15.34135716 rev/d
Perigee alt
461.5 km
Apogee alt
465.5 km
Semi-major
6,841.6 km
B*
1.5731e-3
RAAN
204.5094°
Arg perigee
66.5910°
Mean anomaly
293.5404°
Rev number
12,691

§ Raw data

STARLINK-319961 60100U 24117K   26264.54672015  .00052704  00000+0  15731-2 0  99982 60100  53.1582 204.5094 0002971  66.5910 293.5404 15.34135716126915

JSON: /api/v1/satellites/60100 · /tle

For live sub-satellite position, see the globe view (requires WebGL).

§ Visibility from observer

Set your observer location to see the next 7 days of passes ≥ 10°. The values pass through the URL so the page stays shareable.

No JS? Fill the form by hand. The geolocation button needs JavaScript.